Preview of NWS' New Version of Forecast
This preview is not operational and should not be used for support decisions.
Latest weather observations around

Fort Myers, Southwest Florida International Airport (KRSW)

Using English Units (Switch to International System of Units)
Date/ Time (EDT) Wind (mph) Vis. (mi) Weather Sky Cond. Temp (°F) Rel. Humidity Wind Chill (°F) Heat Index (°F) Pressure Precip. (in)
Air Dwpt 6 hour Altimeter (inHg) Sea level (inHg) 1 hr 3 hr 6 hr
Max Min
May 19 02:53 ENE 8 10 Clear CLR 72 68     87%   73 29.99 29.98      
May 19 01:53 E 5 10 Clear CLR 73 67     81%   74 30 29.99      
May 19 00:53 E 5 10 Clear CLR 74 67     79%   75 30.01 30      
May 18 23:53 ESE 3 10 Clear CLR 75 66     74%   76 30.01 30      
May 18 22:53 ESE 5 10 Clear CLR 76 67     74%   77 30.01 30      
May 18 21:53 SSE 11 10 Partly Cloudy SCT034 79 67     67%   80 30 29.99      
May 18 21:46 SE 14 10 Partly Cloudy SCT034 80 67     64%   82 30        
May 18 21:31 ESE 13 10 Mostly Clear FEW040 80 68     67%   83 29.99        
May 18 20:53 ESE 13 10 Clear CLR 81 67     62%   83 29.98 29.97      
May 18 19:53 E 13 10 Clear CLR 85 62     46%   86 29.95 29.94      
May 18 18:53 ENE 7 10 Clear CLR 87 61     42%   87 29.94 29.93      
May 18 17:53 ESE 7 10 Partly Cloudy SCT070 89 57     34%   88 29.93 29.92      
May 18 16:53 NE 7 10 Mostly Clear FEW075 91 56     31%   89 29.93 29.92      
May 18 15:53 ESE 13 10 Clear CLR 91 56     31%   89 29.94 29.93      
May 18 14:53 Calm 10 Clear CLR 90 55     31%   88 29.97 29.96      
May 18 13:53   10 Mostly Clear FEW070 89 58     35%   88 29.99 29.98      
May 18 12:53 Calm 10 Mostly Clear FEW060 86 59     40%   85 30.01 30      
May 18 11:53 E 10 10 Clear CLR 86 60     42%   86 30.02 30.01      
May 18 10:53 7 10 Clear CLR 83 62     49%   84 30.03 30.02      
May 18 09:53 E 10 10 Clear CLR 80 66     62%   82 30.03 30.02      
May 18 08:53 E 9 10 Clear CLR 75 67     76%   76 30.03 30.02      
May 18 07:53 ENE 5 10 Clear CLR 69 64     84%     30.02 30.01      
May 18 06:53 E 6 10 Clear CLR 66 62     87%     30.01 30      
May 18 05:53 ENE 5 10 Clear CLR 66 62     87%     30 29.99      
May 18 04:53 ENE 6 10 Clear CLR 66 62     87%     30 29.99      
May 18 03:53 NE 5 10 Clear CLR 67 62     84%     29.99 29.98      
May 18 02:53 ENE 5 10 Clear CLR 68 63     84%     29.99 29.98      
May 18 01:53 E 3 10 Clear CLR 70 62     76%     30 29.99      
May 18 00:53 E 6 10 Clear CLR 71 63     76%   71 30.02 30.01      
May 17 23:53 E 6 10 Clear CLR 73 62     68%   73 30.03 30.02      
May 17 22:53 ESE 9 10 Clear CLR 75 61     62%   75 30.02 30.01      
May 17 21:53 E 8 10 Clear CLR 77 61     58%   77 30.01 30      
May 17 20:53 E 9 10 Clear CLR 79 62     56%   79 29.99 29.98      
May 17 19:53 E 11 10 Clear CLR 83 63     51%   84 29.98 29.97      
May 17 18:53 E 10 10 Clear CLR 86 61     43%   86 29.96 29.96      
May 17 17:53 ENE 10 10 Partly Cloudy SCT070 88 58     36%   87 29.96 29.95      
May 17 16:53 ENE 8 10 Mostly Clear FEW070 89 57     34%   88 29.97 29.96      
May 17 15:53 NE 11 10 Mostly Clear FEW070 90 58     34%   89 29.98 29.97      
May 17 14:53 ENE 15 10 Mostly Cloudy BKN070 87 59     39%   86 30 29.99      
May 17 13:53 ENE 14 10 Clear CLR 88 60     39%   88 30.01 30      
May 17 12:53 ENE 11 10 Mostly Clear FEW055 88 60     39%   88 30.02 30.01      
May 17 11:53 ENE 9 10 Clear CLR 86 61     43%   86 30.04 30.03      
May 17 10:53 ESE 9 10 Clear CLR 84 63     49%   85 30.03 30.02      
May 17 09:53 ESE 8 10 Clear CLR 80 65     60%   82 30.03 30.02      
May 17 08:53 E 7 10 Clear CLR 76 66     71%   77 30.04 30.03      
May 17 07:53 ENE 6 10 Clear CLR 70 65     84%     30.03 30.02      
May 17 06:53 ENE 6 10 Clear CLR 67 63     87%     30.02 30.01      
May 17 05:53 ENE 7 10 Clear CLR 67 63     87%     30.01 30      
May 17 04:53 ENE 6 10 Clear CLR 68 63     84%     30 29.99      
May 16 23:53 E 8 10 Clear CLR 72 62     71%   72 30.02 30.01      
May 16 22:53 E 6 10 Clear CLR 73 62     68%   73 30.02 30.01      
May 16 21:53 E 6 10 Clear   75 62     64%   75 30.01 30      
May 16 20:53 ESE 7 10 Clear CLR 78 62     58%   78 29.99 29.98      
May 16 19:53 ESE 9 10 Clear CLR 80 62     54%   81 29.97 29.96      
May 16 18:53 SE 14 10 Mostly Cloudy BKN050 83 63     51%   84 29.96 29.95      
May 16 17:53 E 16 10 Mostly Clear FEW046 86 64     48%   87 29.95 29.95      
May 16 16:53 E 15 10 Mostly Clear FEW090 86 64     48%   87 29.96 29.95      
May 16 15:53 E 16 10 Mostly Cloudy FEW047 BKN060 BKN070 86 65     50%   88 29.97 29.96      
May 16 14:53 ENE 15 10 Mostly Cloudy SCT048 BKN065 88 66     48%   90 29.98 29.97      
May 16 13:53 E 17 10 Partly Cloudy SCT041 SCT100 86 65     50%   88 29.99 29.98      
May 16 12:53 E 13 10 Cloudy SCT033 BKN045 OVC065 83 68     61%   86 30.01 30      
May 16 11:53 E 14 10 Cloudy SCT029 BKN038 OVC060 82 68     63%   85 30.03 30.02      
May 16 11:21 ESE 10 10 Mostly Cloudy BKN029 BKN035 BKN042 82 69     65%   85 30.03        
May 16 10:53 ESE 10 10 Mostly Cloudy SCT026 BKN036 BKN060 82 68     63%   85 30.03 30.02      
May 16 10:37 ENE 13 10 Cloudy FEW025 BKN035 OVC060 83 69     63%   87 30.03        
May 16 10:17 E 14 10 Mostly Cloudy BKN028 81 69     67%   84 30.03        
May 16 09:53 E 13 10 Clear CLR 81 69     67%   84 30.02 30.01      
May 16 09:06 E 10 10 Partly Cloudy SCT024 77 69     77%   78 30.01        
May 16 08:53 E 9 10 Mostly Cloudy BKN024 BKN030 76 69     79%   77 30.01 30      
May 16 08:43 ENE 9 10 Mostly Cloudy BKN024 75 69     82%   76 30.01        
May 16 07:53 ENE 6 10 Clear CLR 73 69     87%   74 30.01 30      
May 16 06:53 NE 3 10 Clear CLR 71 68     90%   72 29.99 29.98      
May 16 05:53 E 3 10 Mostly Clear FEW005 71 68     90%   72 29.97 29.96      
May 16 05:48 E 6 10 Partly Cloudy SCT005 72 68     88%   73 29.97        
May 16 05:05 ENE 6 10 Mostly Cloudy BKN005 71 68     90%   72 29.96        
May 16 04:53 ENE 6 10 Mostly Clear FEW006 70 67     90%     29.96 29.95      
May 16 03:53 E 3 10 Clear CLR 71 67     87%   72 29.95 29.94      
May 15 12:18 SSW 10 10 Light Rain SCT035 BKN044 BKN055 84 73     70%   90 29.98   0    
May 15 03:53 SSE 6 10 Clear CLR 72 71     97%   73 29.91 29.9      
May 14 11:41 S 7 10 Light Rain SCT040 BKN046 OVC090 77 76     96%   79 29.93   0    
May 13 21:53 ENE 9 10 Light Rain BKN120 71 71     100%   73 30.01 30 0    
May 13 16:53 E 7 5 Rain and Fog/Mist FEW032 OVC100 72 72     100%   74 30.01 30 0 0  
May 13 12:53 E 7 5 Clear   73 72     96%   75 30.05 30.04 0    
May 13 12:39 ENE 11 6 Light Rain and Fog/Mist FEW005 BKN037 OVC060 73 73     100%   75 30.04   0    
May 13 12:15 E 16 2.5 Heavy Rain and Fog/Mist OVC027 75 73     94%   77 30.05   0    
May 12 08:53 Calm 10 Cloudy OVC110 74 66     76%   75 30.13 30.12      
May 12 07:53 ENE 9 10 Smoke OVC110 70 64     81%     30.09 30.08     0
May 12 03:53 Calm 5 Haze BKN110 72 61     68%   72 30.07 30.06      
May 11 14:53 E 14 10 Clear CLR 88 59     38%   87 30.06 30.05      
Jun 11 00:53 E 9 10 Clear CLR 76 74     94%   78 30.08 30.08      
Jun 10 23:53 E 7 10 Clear CLR 75 74     96%   77 30.09 30.08      
Jun 10 18:53 ENE 10 10 Clear   79 75     88%   83 30.06 30.05      
Notice The following observation data may not be complete
Jun 10 10:04   2 Heavy Rain and Fog/Mist BKN046 BKN060 OVC075          %         0    
Jun 10 08:36 ESE 9 9 Light Rain SCT029 BKN035 OVC043 75 72     90%   76 30.02   0    
Jun 09 10:53 ENE 5 10 Mostly Clear FEW019 83 72     70%   88 29.95 29.94      
Jun 08 17:53 WSW 14 10 Mostly Cloudy SCT028 BKN041 BKN048 84 72     67%   90 29.78 29.77      
Jun 08 16:00 W 13 10 Cloudy FEW033 BKN047 OVC055 84 72     67%   90 29.79        
Jun 07 16:53 S 11 2.5 Thunderstorms and Heavy Rain and Fog/Mist OVC028 73 72     96%   75 29.8 29.79 0 3  
Jun 07 16:11 SSW 11 2.5 Heavy Rain and Fog/Mist BKN007 OVC028 73 71     94%   74 29.82   0    
Jun 07 13:53 SW 14 1 Thunderstorms and Heavy Rain and Fog/Mist BKN012 BKN025 OVC041 70 69     97%     29.84 29.83 1   1
Jun 07 12:53 S 14 10 Thunderstorms and Rain FEW027 BKN037 OVC055 82 72     72%   87 29.8 29.79 0    
Jun 07 11:53 SSW 20 10 Clear and Windy   83 73     72%   89 29.81 29.8 0    
Jun 06 10:53 SSE 11 10 Light Rain FEW037 FEW045 OVC055 75 73     94%   77 29.87 29.86 0 0  
Jun 06 00:53 SSE 8 10 Mostly Cloudy FEW011 SCT044 BKN070 75 73     94%   77 29.9 29.89 0    
Jun 05 23:53 SSE 10 10 Light Rain FEW007 BKN100 OVC120 75 73     94%   77 29.91 29.9 0